Time,TemperatureF,DewpointF,PressureIn,WindDirection,WindDirectionDegrees,WindSpeedMPH,WindSpeedGustMPH,Humidity,HourlyPrecipIn,Conditions,Clouds,dailyrainin,SoftwareType,DateUTC
2013-06-07 00:05:00,58.4,55.8,29.88,NNE,20,0.0,0.0,91,0.00,,,0.11,Wunderground v.1.15,2013-06-07 05:05:00,
2013-06-07 00:10:00,58.4,55.8,29.88,NNE,20,0.0,0.0,91,0.00,,,0.11,Wunderground v.1.15,2013-06-07 05:10:00,
2013-06-07 00:15:00,58.4,55.8,29.88,NNE,20,0.0,0.0,91,0.00,,,0.11,Wunderground v.1.15,2013-06-07 05:15:00,
2013-06-07 00:24:00,58.3,55.7,29.88,NNE,20,0.0,0.0,91,0.00,,,0.00,Wunderground v.1.15,2013-06-07 05:24:00,
2013-06-07 00:30:00,58.3,55.7,29.88,NE,40,0.0,0.0,91,0.00,,,0.00,Wunderground v.1.15,2013-06-07 05:30:00,
2013-06-07 00:35:00,58.3,55.7,29.88,NNE,32,0.0,0.0,91,0.00,,,0.00,Wunderground v.1.15,2013-06-07 05:35:00,
2013-06-07 00:39:00,58.3,55.7,29.88,NE,44,0.0,2.0,91,0.00,,,0.00,Wunderground v.1.15,2013-06-07 05:39:00,
2013-06-07 00:49:00,58.1,55.8,29.89,NE,44,0.0,0.0,92,0.00,,,0.00,Wunderground v.1.15,2013-06-07 05:49:00,
2013-06-07 00:55:00,58.1,55.8,29.89,NE,41,0.0,0.0,92,0.00,,,0.00,Wunderground v.1.15,2013-06-07 05:55:00,
2013-06-07 01:00:00,58.1,55.8,29.89,NE,41,0.0,0.0,92,0.00,,,0.00,Wunderground v.1.15,2013-06-07 06:00:00,
2013-06-07 01:10:00,58.1,55.8,29.89,NE,41,0.0,0.0,92,0.00,,,0.00,Wunderground v.1.15,2013-06-07 06:10:00,
2013-06-07 01:20:00,58.1,55.8,29.89,NE,40,0.0,0.0,92,0.00,,,0.00,Wunderground v.1.15,2013-06-07 06:20:00,
2013-06-07 01:30:00,58.1,55.8,29.89,NE,35,0.0,0.0,92,0.00,,,0.00,Wunderground v.1.15,2013-06-07 06:30:00,
2013-06-07 01:40:00,58.0,55.7,29.89,NNE,21,0.0,0.0,92,0.00,,,0.00,Wunderground v.1.15,2013-06-07 06:40:00,
2013-06-07 01:50:00,57.8,55.5,29.89,NNE,16,0.0,0.0,92,0.00,,,0.00,Wunderground v.1.15,2013-06-07 06:50:00,
2013-06-07 01:55:00,57.8,55.5,29.89,NNE,25,0.0,0.0,92,0.00,,,0.00,Wunderground v.1.15,2013-06-07 06:55:00,
2013-06-07 02:00:00,57.7,55.4,29.89,NNE,25,0.0,0.0,92,0.00,,,0.00,Wunderground v.1.15,2013-06-07 07:00:00,
2013-06-07 02:10:00,57.7,55.4,29.89,NNE,25,0.0,0.0,92,0.00,,,0.00,Wunderground v.1.15,2013-06-07 07:10:00,
2013-06-07 02:15:00,57.7,55.4,29.89,NE,37,0.0,1.0,92,0.00,,,0.00,Wunderground v.1.15,2013-06-07 07:15:00,
2013-06-07 02:29:00,57.7,55.4,29.89,NE,34,1.0,1.0,92,0.00,,,0.00,Wunderground v.1.15,2013-06-07 07:29:00,
2013-06-07 02:40:00,57.5,55.2,29.88,North,357,0.0,0.0,92,0.00,,,0.00,Wunderground v.1.15,2013-06-07 07:40:00,
2013-06-07 02:54:00,56.6,52.8,29.88,NNE,32,1.0,1.0,87,0.00,,,0.00,Wunderground v.1.15,2013-06-07 07:54:00,
2013-06-07 03:00:00,56.6,51.8,29.88,NE,34,1.0,1.0,84,0.00,,,0.00,Wunderground v.1.15,2013-06-07 08:00:00,
2013-06-07 03:10:00,56.4,50.0,29.88,NNE,17,0.0,0.0,79,0.00,,,0.00,Wunderground v.1.15,2013-06-07 08:10:00,
2013-06-07 03:20:00,56.3,49.5,29.88,NNE,17,0.0,0.0,78,0.00,,,0.00,Wunderground v.1.15,2013-06-07 08:20:00,
2013-06-07 03:24:00,56.1,49.3,29.88,NNE,17,0.0,0.0,78,0.00,,,0.00,Wunderground v.1.15,2013-06-07 08:24:00,
2013-06-07 03:30:00,56.0,49.2,29.88,NNE,17,0.0,0.0,78,0.00,,,0.00,Wunderground v.1.15,2013-06-07 08:30:00,
2013-06-07 03:34:00,56.0,49.6,29.88,NNE,17,0.0,0.0,79,0.00,,,0.00,Wunderground v.1.15,2013-06-07 08:34:00,
2013-06-07 03:40:00,55.9,49.5,29.88,NNE,17,0.0,0.0,79,0.00,,,0.00,Wunderground v.1.15,2013-06-07 08:40:00,
2013-06-07 03:50:00,55.7,50.0,29.88,NNE,17,0.0,0.0,81,0.00,,,0.00,Wunderground v.1.15,2013-06-07 08:50:00,
2013-06-07 04:00:00,55.6,50.2,29.88,NNE,17,0.0,0.0,82,0.00,,,0.00,Wunderground v.1.15,2013-06-07 09:00:00,
2013-06-07 04:04:00,55.4,50.0,29.88,NNE,17,0.0,0.0,82,0.00,,,0.00,Wunderground v.1.15,2013-06-07 09:04:00,
2013-06-07 04:15:00,55.4,50.6,29.88,NNE,17,0.0,0.0,84,0.00,,,0.00,Wunderground v.1.15,2013-06-07 09:15:00,
2013-06-07 04:20:00,55.3,50.9,29.88,NNE,20,0.0,1.0,85,0.00,,,0.00,Wunderground v.1.15,2013-06-07 09:20:00,
2013-06-07 04:25:00,55.1,51.0,29.88,NNE,20,0.0,0.0,86,0.00,,,0.00,Wunderground v.1.15,2013-06-07 09:25:00,
2013-06-07 04:35:00,54.8,51.0,29.88,NNE,20,0.0,0.0,87,0.00,,,0.00,Wunderground v.1.15,2013-06-07 09:35:00,
2013-06-07 04:39:00,54.8,51.0,29.88,NE,49,0.0,0.0,87,0.00,,,0.00,Wunderground v.1.15,2013-06-07 09:39:00,
2013-06-07 04:45:00,54.7,51.2,29.88,NNE,18,0.0,0.0,88,0.00,,,0.00,Wunderground v.1.15,2013-06-07 09:45:00,
2013-06-07 04:49:00,54.5,51.0,29.88,NNE,18,0.0,0.0,88,0.00,,,0.00,Wunderground v.1.15,2013-06-07 09:49:00,
2013-06-07 04:55:00,54.5,51.0,29.88,NNE,18,0.0,0.0,88,0.00,,,0.00,Wunderground v.1.15,2013-06-07 09:55:00,
2013-06-07 05:00:00,54.5,51.3,29.88,NNE,18,0.0,0.0,89,0.00,,,0.00,Wunderground v.1.15,2013-06-07 10:00:00,
2013-06-07 05:10:00,54.4,51.2,29.89,NNE,18,0.0,0.0,89,0.00,,,0.00,Wunderground v.1.15,2013-06-07 10:10:00,
2013-06-07 05:20:00,54.2,51.3,29.89,NNE,18,0.0,0.0,90,0.00,,,0.00,Wunderground v.1.15,2013-06-07 10:20:00,
2013-06-07 05:30:00,53.9,51.0,29.89,NNE,18,0.0,0.0,90,0.00,,,0.00,Wunderground v.1.15,2013-06-07 10:30:00,
2013-06-07 05:40:00,53.8,50.9,29.90,NNE,18,0.0,0.0,90,0.00,,,0.00,Wunderground v.1.15,2013-06-07 10:40:00,
2013-06-07 05:50:00,53.5,50.6,29.90,NNE,18,0.0,0.0,90,0.00,,,0.00,Wunderground v.1.15,2013-06-07 10:50:00,
2013-06-07 06:05:00,53.2,50.6,29.90,NNE,18,0.0,0.0,91,0.00,,,0.00,Wunderground v.1.15,2013-06-07 11:05:00,
2013-06-07 06:10:00,53.0,50.4,29.90,NNE,18,0.0,0.0,91,0.00,,,0.00,Wunderground v.1.15,2013-06-07 11:10:00,
2013-06-07 06:20:00,53.0,50.4,29.91,NNE,18,0.0,0.0,91,0.00,,,0.00,Wunderground v.1.15,2013-06-07 11:20:00,
2013-06-07 06:30:00,53.0,50.4,29.91,NNE,18,0.0,0.0,91,0.00,,,0.00,Wunderground v.1.15,2013-06-07 11:30:00,
2013-06-07 06:40:00,53.2,50.6,29.91,NNE,18,0.0,0.0,91,0.00,,,0.00,Wunderground v.1.15,2013-06-07 11:40:00,
2013-06-07 06:50:00,53.5,50.6,29.91,NNE,18,0.0,0.0,90,0.00,,,0.00,Wunderground v.1.15,2013-06-07 11:50:00,
2013-06-07 06:55:00,53.5,50.6,29.91,NNE,18,0.0,0.0,90,0.00,,,0.00,Wunderground v.1.15,2013-06-07 11:55:00,
2013-06-07 07:10:00,54.5,51.3,29.92,NNE,17,0.0,0.0,89,0.00,,,0.00,Wunderground v.1.15,2013-06-07 12:10:00,
2013-06-07 07:20:00,55.0,51.2,29.92,North,353,0.0,0.0,87,0.00,,,0.00,Wunderground v.1.15,2013-06-07 12:20:00,
2013-06-07 07:25:00,55.3,51.5,29.92,North,4,0.0,1.0,87,0.00,,,0.00,Wunderground v.1.15,2013-06-07 12:25:00,
2013-06-07 07:30:00,55.6,51.5,29.92,North,357,0.0,0.0,86,0.00,,,0.00,Wunderground v.1.15,2013-06-07 12:30:00,
2013-06-07 07:35:00,56.0,51.9,29.91,NNE,17,0.0,0.0,86,0.00,,,0.00,Wunderground v.1.15,2013-06-07 12:35:00,
2013-06-07 07:40:00,56.3,52.2,29.91,NNE,20,1.0,1.0,86,0.00,,,0.00,Wunderground v.1.15,2013-06-07 12:40:00,
2013-06-07 07:50:00,56.9,51.8,29.92,NNE,20,1.0,2.0,83,0.00,,,0.00,Wunderground v.1.15,2013-06-07 12:50:00,
2013-06-07 07:55:00,57.4,51.9,29.92,WSW,258,1.0,1.0,82,0.00,,,0.00,Wunderground v.1.15,2013-06-07 12:55:00,
2013-06-07 08:00:00,57.4,51.3,29.92,NNE,31,1.0,1.0,80,0.00,,,0.00,Wunderground v.1.15,2013-06-07 13:00:00,
2013-06-07 08:05:00,57.5,51.4,29.92,NNE,28,2.0,2.0,80,0.00,,,0.00,Wunderground v.1.15,2013-06-07 13:05:00,
2013-06-07 08:10:00,57.8,51.7,29.92,NNE,30,1.0,1.0,80,0.00,,,0.00,Wunderground v.1.15,2013-06-07 13:10:00,
2013-06-07 08:15:00,58.1,52.0,29.92,NNE,24,1.0,1.0,80,0.00,,,0.00,Wunderground v.1.15,2013-06-07 13:15:00,
2013-06-07 08:20:00,58.4,52.3,29.92,NE,35,1.0,1.0,80,0.00,,,0.00,Wunderground v.1.15,2013-06-07 13:20:00,
2013-06-07 08:30:00,58.9,51.7,29.92,NE,40,1.0,1.0,77,0.00,,,0.00,Wunderground v.1.15,2013-06-07 13:30:00,
2013-06-07 08:35:00,59.0,51.4,29.93,North,0,1.0,1.0,76,0.00,,,0.00,Wunderground v.1.15,2013-06-07 13:35:00,
2013-06-07 08:45:00,59.6,52.4,29.93,North,7,0.0,1.0,77,0.00,,,0.00,Wunderground v.1.15,2013-06-07 13:45:00,
2013-06-07 08:50:00,59.8,52.6,29.93,NE,37,1.0,1.0,77,0.00,,,0.00,Wunderground v.1.15,2013-06-07 13:50:00,
2013-06-07 09:00:00,60.3,52.7,29.93,NE,42,0.0,2.0,76,0.00,,,0.00,Wunderground v.1.15,2013-06-07 14:00:00,
2013-06-07 09:05:00,60.6,52.6,29.93,NNE,31,1.0,1.0,75,0.00,,,0.00,Wunderground v.1.15,2013-06-07 14:05:00,
2013-06-07 09:10:00,60.7,52.7,29.93,North,0,1.0,1.0,75,0.00,,,0.00,Wunderground v.1.15,2013-06-07 14:10:00,
2013-06-07 09:15:00,61.2,53.2,29.93,NNE,28,0.0,0.0,75,0.00,,,0.00,Wunderground v.1.15,2013-06-07 14:15:00,
2013-06-07 09:34:00,62.5,53.0,29.93,North,0,0.0,0.0,71,0.00,,,0.00,Wunderground v.1.15,2013-06-07 14:34:00,
2013-06-07 09:40:00,62.8,53.6,29.93,West,270,0.0,0.0,72,0.00,,,0.00,Wunderground v.1.15,2013-06-07 14:40:00,
2013-06-07 09:45:00,63.4,53.4,29.93,North,4,1.0,1.0,70,0.00,,,0.00,Wunderground v.1.15,2013-06-07 14:45:00,
2013-06-07 09:50:00,64.2,54.6,29.92,NNW,336,1.0,5.0,71,0.00,,,0.00,Wunderground v.1.15,2013-06-07 14:50:00,
2013-06-07 09:55:00,64.6,54.2,29.92,NW,309,1.0,5.0,69,0.00,,,0.00,Wunderground v.1.15,2013-06-07 14:55:00,
2013-06-07 10:05:00,64.9,52.8,29.92,North,11,0.0,0.0,65,0.00,,,0.00,Wunderground v.1.15,2013-06-07 15:05:00,
2013-06-07 10:15:00,65.4,53.7,29.92,NE,48,1.0,1.0,66,0.00,,,0.00,Wunderground v.1.15,2013-06-07 15:15:00,
2013-06-07 10:20:00,65.0,53.8,29.92,NE,37,1.0,1.0,67,0.00,,,0.00,Wunderground v.1.15,2013-06-07 15:20:00,
2013-06-07 10:30:00,66.5,54.8,29.92,North,0,2.0,2.0,66,0.00,,,0.00,Wunderground v.1.15,2013-06-07 15:30:00,
2013-06-07 10:40:00,66.8,54.7,29.92,NW,312,1.0,5.0,65,0.00,,,0.00,Wunderground v.1.15,2013-06-07 15:40:00,
2013-06-07 10:50:00,66.2,54.1,29.92,NNE,28,2.0,6.0,65,0.00,,,0.00,Wunderground v.1.15,2013-06-07 15:50:00,
2013-06-07 10:55:00,66.3,54.6,29.92,West,274,1.0,6.0,66,0.00,,,0.00,Wunderground v.1.15,2013-06-07 15:55:00,
2013-06-07 11:05:00,67.0,55.3,29.92,NE,35,1.0,1.0,66,0.00,,,0.00,Wunderground v.1.15,2013-06-07 16:05:00,
2013-06-07 11:10:00,67.5,54.9,29.92,North,353,1.0,2.0,64,0.00,,,0.00,Wunderground v.1.15,2013-06-07 16:10:00,
2013-06-07 11:15:00,67.7,54.2,29.92,NNE,25,2.0,2.0,62,0.00,,,0.00,Wunderground v.1.15,2013-06-07 16:15:00,
2013-06-07 11:20:00,67.7,53.8,29.92,NNE,32,1.0,6.0,61,0.00,,,0.00,Wunderground v.1.15,2013-06-07 16:20:00,
2013-06-07 11:25:00,67.3,53.8,29.92,North,0,2.0,6.0,62,0.00,,,0.00,Wunderground v.1.15,2013-06-07 16:25:00,
2013-06-07 11:30:00,67.2,53.7,29.92,NNE,17,2.0,2.0,62,0.00,,,0.00,Wunderground v.1.15,2013-06-07 16:30:00,
2013-06-07 11:39:00,66.5,53.1,29.92,NE,42,1.0,2.0,62,0.00,,,0.00,Wunderground v.1.15,2013-06-07 16:39:00,
2013-06-07 11:45:00,66.2,53.2,29.92,North,0,1.0,3.0,63,0.00,,,0.00,Wunderground v.1.15,2013-06-07 16:45:00,
2013-06-07 11:50:00,66.7,55.0,29.92,NNE,25,1.0,3.0,66,0.00,,,0.00,Wunderground v.1.15,2013-06-07 16:50:00,
2013-06-07 11:55:00,67.0,54.0,29.92,NE,47,1.0,1.0,63,0.00,,,0.00,Wunderground v.1.15,2013-06-07 16:55:00,
2013-06-07 12:00:00,67.0,52.7,29.92,NNE,30,1.0,1.0,60,0.00,,,0.00,Wunderground v.1.15,2013-06-07 17:00:00,
2013-06-07 12:10:00,66.8,53.4,29.92,North,4,1.0,1.0,62,0.00,,,0.00,Wunderground v.1.15,2013-06-07 17:10:00,
2013-06-07 12:20:00,67.2,54.2,29.92,NNE,17,1.0,1.0,63,0.00,,,0.00,Wunderground v.1.15,2013-06-07 17:20:00,
2013-06-07 12:30:00,66.7,53.7,29.92,NNE,27,1.0,1.0,63,0.00,,,0.00,Wunderground v.1.15,2013-06-07 17:30:00,
2013-06-07 12:40:00,66.7,54.1,29.92,WNW,284,1.0,1.0,64,0.00,,,0.00,Wunderground v.1.15,2013-06-07 17:40:00,
2013-06-07 12:50:00,66.8,54.2,29.91,NW,306,0.0,0.0,64,0.00,,,0.00,Wunderground v.1.15,2013-06-07 17:50:00,
2013-06-07 13:00:00,66.8,53.8,29.91,North,10,0.0,0.0,63,0.00,,,0.00,Wunderground v.1.15,2013-06-07 18:00:00,
2013-06-07 13:05:00,66.8,52.9,29.91,NNE,23,1.0,1.0,61,0.00,,,0.00,Wunderground v.1.15,2013-06-07 18:05:00,
2013-06-07 13:10:00,67.0,53.5,29.91,NNE,31,0.0,1.0,62,0.00,,,0.00,Wunderground v.1.15,2013-06-07 18:10:00,
2013-06-07 13:15:00,67.0,53.5,29.91,NNE,31,0.0,0.0,62,0.00,,,0.00,Wunderground v.1.15,2013-06-07 18:15:00,
2013-06-07 13:20:00,67.2,54.2,29.91,WNW,294,0.0,0.0,63,0.00,,,0.00,Wunderground v.1.15,2013-06-07 18:20:00,
2013-06-07 13:30:00,67.5,54.5,29.91,NW,316,0.0,0.0,63,0.00,,,0.00,Wunderground v.1.15,2013-06-07 18:30:00,
2013-06-07 13:35:00,67.7,53.3,29.91,NNE,27,0.0,0.0,60,0.00,,,0.00,Wunderground v.1.15,2013-06-07 18:35:00,
2013-06-07 13:40:00,67.7,53.3,29.91,NNE,21,1.0,2.0,60,0.00,,,0.00,Wunderground v.1.15,2013-06-07 18:40:00,
2013-06-07 13:50:00,68.0,54.9,29.90,North,8,0.0,0.0,63,0.00,,,0.00,Wunderground v.1.15,2013-06-07 18:50:00,
2013-06-07 14:00:00,69.0,55.4,29.90,NE,37,1.0,5.0,62,0.00,,,0.00,Wunderground v.1.15,2013-06-07 19:00:00,
2013-06-07 14:05:00,69.2,53.3,29.90,North,0,1.0,1.0,57,0.00,,,0.00,Wunderground v.1.15,2013-06-07 19:05:00,
2013-06-07 14:10:00,69.7,55.6,29.90,NNW,339,1.0,1.0,61,0.00,,,0.00,Wunderground v.1.15,2013-06-07 19:10:00,
2013-06-07 14:20:00,69.0,53.1,29.90,NNE,13,1.0,1.0,57,0.00,,,0.00,Wunderground v.1.15,2013-06-07 19:20:00,
2013-06-07 14:30:00,68.5,53.1,29.90,SE,140,0.0,0.0,58,0.00,,,0.00,Wunderground v.1.15,2013-06-07 19:30:00,
2013-06-07 14:35:00,68.7,53.8,29.90,NE,41,0.0,0.0,59,0.00,,,0.00,Wunderground v.1.15,2013-06-07 19:35:00,
2013-06-07 14:45:00,68.3,53.4,29.90,North,359,0.0,0.0,59,0.00,,,0.00,Wunderground v.1.15,2013-06-07 19:45:00,
2013-06-07 14:50:00,68.5,53.6,29.89,North,0,1.0,1.0,59,0.00,,,0.00,Wunderground v.1.15,2013-06-07 19:50:00,
2013-06-07 14:55:00,69.0,53.6,29.89,NNE,18,1.0,1.0,58,0.00,,,0.00,Wunderground v.1.15,2013-06-07 19:55:00,
2013-06-07 15:00:00,69.8,53.9,29.89,NNE,16,0.0,1.0,57,0.00,,,0.00,Wunderground v.1.15,2013-06-07 20:00:00,
2013-06-07 15:05:00,70.3,53.4,29.89,NW,325,0.0,0.0,55,0.00,,,0.00,Wunderground v.1.15,2013-06-07 20:05:00,
2013-06-07 15:10:00,70.7,54.7,29.89,North,0,0.0,0.0,57,0.00,,,0.00,Wunderground v.1.15,2013-06-07 20:10:00,
2013-06-07 15:15:00,70.9,53.9,29.89,NNE,28,0.0,0.0,55,0.00,,,0.00,Wunderground v.1.15,2013-06-07 20:15:00,
2013-06-07 15:25:00,70.3,54.3,29.89,NW,325,0.0,0.0,57,0.00,,,0.00,Wunderground v.1.15,2013-06-07 20:25:00,
2013-06-07 15:35:00,70.7,54.7,29.89,NNW,344,1.0,1.0,57,0.00,,,0.00,Wunderground v.1.15,2013-06-07 20:35:00,
2013-06-07 15:40:00,70.7,53.2,29.89,NNW,346,0.0,1.0,54,0.00,,,0.00,Wunderground v.1.15,2013-06-07 20:40:00,
2013-06-07 15:45:00,70.2,52.8,29.89,NE,35,0.0,0.0,54,0.00,,,0.00,Wunderground v.1.15,2013-06-07 20:45:00,
2013-06-07 15:50:00,70.0,53.6,29.89,NE,35,0.0,0.0,56,0.00,,,0.00,Wunderground v.1.15,2013-06-07 20:50:00,
2013-06-07 15:55:00,70.0,53.1,29.89,North,359,0.0,0.0,55,0.00,,,0.00,Wunderground v.1.15,2013-06-07 20:55:00,
2013-06-07 16:20:00,70.0,52.6,29.88,North,4,1.0,1.0,54,0.00,,,0.00,Wunderground v.1.15,2013-06-07 21:20:00,
2013-06-07 16:30:00,70.5,53.6,29.88,North,6,0.0,0.0,55,0.00,,,0.00,Wunderground v.1.15,2013-06-07 21:30:00,
2013-06-07 16:35:00,70.9,53.9,29.88,NW,305,0.0,0.0,55,0.00,,,0.00,Wunderground v.1.15,2013-06-07 21:35:00,
2013-06-07 16:40:00,70.5,52.0,29.88,North,0,0.0,0.0,52,0.00,,,0.00,Wunderground v.1.15,2013-06-07 21:40:00,
2013-06-07 16:50:00,69.7,51.8,29.88,North,32767,-999.0,0.0,53,0.00,,,0.00,Wunderground v.1.15,2013-06-07 21:50:00,
2013-06-07 16:55:00,69.3,51.4,29.88,North,32767,-999.0,0.0,53,0.00,,,0.00,Wunderground v.1.15,2013-06-07 21:55:00,
2013-06-07 17:00:00,69.2,52.8,29.88,North,359,0.0,0.0,56,0.00,,,0.00,Wunderground v.1.15,2013-06-07 22:00:00,
2013-06-07 17:05:00,69.2,51.8,29.88,North,359,0.0,0.0,54,0.00,,,0.00,Wunderground v.1.15,2013-06-07 22:05:00,
2013-06-07 17:10:00,69.0,51.7,29.88,North,359,0.0,0.0,54,0.00,,,0.00,Wunderground v.1.15,2013-06-07 22:10:00,
2013-06-07 17:15:00,68.8,52.5,29.88,NW,325,0.0,0.0,56,0.00,,,0.00,Wunderground v.1.15,2013-06-07 22:15:00,
2013-06-07 17:30:00,69.3,53.4,29.88,North,0,0.0,0.0,57,0.00,,,0.00,Wunderground v.1.15,2013-06-07 22:30:00,
2013-06-07 17:40:00,69.8,52.9,29.88,WNW,291,0.0,2.0,55,0.00,,,0.00,Wunderground v.1.15,2013-06-07 22:40:00,
2013-06-07 17:50:00,70.2,52.3,29.87,North,356,0.0,0.0,53,0.00,,,0.00,Wunderground v.1.15,2013-06-07 22:50:00,
2013-06-07 17:55:00,70.3,53.4,29.87,SW,234,0.0,0.0,55,0.00,,,0.00,Wunderground v.1.15,2013-06-07 22:55:00,
2013-06-07 18:00:00,70.3,52.9,29.87,NNE,14,0.0,0.0,54,0.00,,,0.00,Wunderground v.1.15,2013-06-07 23:00:00,
2013-06-07 18:05:00,70.2,52.8,29.87,NNE,14,0.0,0.0,54,0.00,,,0.00,Wunderground v.1.15,2013-06-07 23:05:00,
2013-06-07 18:10:00,70.0,52.1,29.87,NNE,14,0.0,0.0,53,0.00,,,0.00,Wunderground v.1.15,2013-06-07 23:10:00,
2013-06-07 18:15:00,69.8,51.9,29.87,North,32767,-999.0,0.0,53,0.00,,,0.00,Wunderground v.1.15,2013-06-07 23:15:00,
2013-06-07 18:20:00,69.8,51.4,29.87,North,32767,-999.0,0.0,52,0.00,,,0.00,Wunderground v.1.15,2013-06-07 23:20:00,
2013-06-07 18:30:00,69.8,51.9,29.87,North,32767,-999.0,0.0,53,0.00,,,0.00,Wunderground v.1.15,2013-06-07 23:30:00,
2013-06-07 18:40:00,69.8,51.4,29.87,North,32767,-999.0,0.0,52,0.00,,,0.00,Wunderground v.1.15,2013-06-07 23:40:00,
2013-06-07 18:45:00,69.8,50.9,29.87,North,32767,-999.0,0.0,51,0.00,,,0.00,Wunderground v.1.15,2013-06-07 23:45:00,
2013-06-07 18:50:00,69.8,51.4,29.87,North,32767,-999.0,0.0,52,0.00,,,0.00,Wunderground v.1.15,2013-06-07 23:50:00,
2013-06-07 19:00:00,69.7,51.8,29.87,North,32767,-999.0,0.0,53,0.00,,,0.00,Wunderground v.1.15,2013-06-08 00:00:00,
2013-06-07 19:05:00,69.5,52.1,29.87,North,32767,-999.0,0.0,54,0.00,,,0.00,Wunderground v.1.15,2013-06-08 00:05:00,
2013-06-07 19:20:00,69.3,51.4,29.87,North,32767,-999.0,0.0,53,0.00,,,0.00,Wunderground v.1.15,2013-06-08 00:20:00,
2013-06-07 19:25:00,69.2,51.3,29.87,North,32767,-999.0,0.0,53,0.00,,,0.00,Wunderground v.1.15,2013-06-08 00:25:00,
2013-06-07 19:35:00,69.0,51.7,29.87,North,32767,-999.0,0.0,54,0.00,,,0.00,Wunderground v.1.15,2013-06-08 00:35:00,
2013-06-07 19:40:00,68.8,51.5,29.87,North,32767,-999.0,0.0,54,0.00,,,0.00,Wunderground v.1.15,2013-06-08 00:40:00,
2013-06-07 19:45:00,68.7,51.9,29.87,North,32767,-999.0,0.0,55,0.00,,,0.00,Wunderground v.1.15,2013-06-08 00:45:00,
2013-06-07 19:50:00,68.7,52.4,29.87,North,32767,-999.0,0.0,56,0.00,,,0.00,Wunderground v.1.15,2013-06-08 00:50:00,
2013-06-07 19:55:00,68.3,52.0,29.87,North,32767,-999.0,0.0,56,0.00,,,0.00,Wunderground v.1.15,2013-06-08 00:55:00,
2013-06-07 20:00:00,68.2,52.4,29.87,North,32767,-999.0,0.0,57,0.00,,,0.00,Wunderground v.1.15,2013-06-08 01:00:00,
2013-06-07 20:10:00,67.7,52.4,29.88,North,32767,-999.0,0.0,58,0.00,,,0.00,Wunderground v.1.15,2013-06-08 01:10:00,
2013-06-07 20:20:00,67.3,52.0,29.88,North,32767,-999.0,0.0,58,0.00,,,0.00,Wunderground v.1.15,2013-06-08 01:20:00,
2013-06-07 20:25:00,67.2,52.8,29.88,North,32767,-999.0,0.0,60,0.00,,,0.00,Wunderground v.1.15,2013-06-08 01:25:00,
2013-06-07 20:30:00,66.8,52.9,29.88,North,32767,-999.0,0.0,61,0.00,,,0.00,Wunderground v.1.15,2013-06-08 01:30:00,
2013-06-07 20:35:00,66.7,52.4,29.88,North,32767,-999.0,0.0,60,0.00,,,0.00,Wunderground v.1.15,2013-06-08 01:35:00,
2013-06-07 20:40:00,66.3,52.4,29.88,North,32767,-999.0,0.0,61,0.00,,,0.00,Wunderground v.1.15,2013-06-08 01:40:00,
2013-06-07 20:55:00,65.4,52.9,29.88,NE,48,0.0,0.0,64,0.00,,,0.00,Wunderground v.1.15,2013-06-08 01:55:00,
2013-06-07 21:10:00,64.2,53.0,29.88,NE,48,0.0,0.0,67,0.00,,,0.00,Wunderground v.1.15,2013-06-08 02:10:00,
2013-06-07 21:20:00,63.7,53.3,29.88,NE,48,0.0,0.0,69,0.00,,,0.00,Wunderground v.1.15,2013-06-08 02:20:00,
2013-06-07 21:35:00,62.6,53.4,29.88,NE,48,0.0,0.0,72,0.00,,,0.00,Wunderground v.1.15,2013-06-08 02:35:00,
2013-06-07 21:40:00,62.3,53.2,29.88,NE,48,0.0,0.0,72,0.00,,,0.00,Wunderground v.1.15,2013-06-08 02:40:00,
2013-06-07 21:50:00,61.8,53.1,29.89,NE,48,0.0,0.0,73,0.00,,,0.00,Wunderground v.1.15,2013-06-08 02:50:00,
2013-06-07 21:55:00,61.7,53.3,29.89,NE,48,0.0,0.0,74,0.00,,,0.00,Wunderground v.1.15,2013-06-08 02:55:00,
2013-06-07 22:00:00,61.4,53.0,29.89,NE,48,0.0,0.0,74,0.00,,,0.00,Wunderground v.1.15,2013-06-08 03:00:00,
2013-06-07 22:05:00,61.0,53.0,29.89,NE,48,0.0,0.0,75,0.00,,,0.00,Wunderground v.1.15,2013-06-08 03:05:00,
2013-06-07 22:15:00,60.7,53.1,29.89,NE,48,0.0,0.0,76,0.00,,,0.00,Wunderground v.1.15,2013-06-08 03:15:00,
2013-06-07 22:25:00,60.1,52.9,29.89,NE,47,0.0,0.0,77,0.00,,,0.00,Wunderground v.1.15,2013-06-08 03:25:00,
2013-06-07 22:35:00,59.8,52.9,29.89,NE,47,0.0,0.0,78,0.00,,,0.00,Wunderground v.1.15,2013-06-08 03:35:00,
2013-06-07 22:40:00,59.6,52.7,29.89,NE,47,0.0,0.0,78,0.00,,,0.00,Wunderground v.1.15,2013-06-08 03:40:00,
2013-06-07 22:50:00,59.3,52.8,29.89,NE,47,0.0,0.0,79,0.00,,,0.00,Wunderground v.1.15,2013-06-08 03:50:00,
2013-06-07 23:15:00,58.7,52.9,29.89,NE,47,0.0,0.0,81,0.00,,,0.00,Wunderground v.1.15,2013-06-08 04:15:00,
2013-06-07 23:20:00,58.6,52.8,29.89,NE,47,0.0,0.0,81,0.00,,,0.00,Wunderground v.1.15,2013-06-08 04:20:00,
2013-06-07 23:30:00,58.3,52.8,29.89,NE,47,0.0,0.0,82,0.00,,,0.00,Wunderground v.1.15,2013-06-08 04:30:00,
2013-06-07 23:40:00,58.0,52.9,29.89,NE,47,0.0,0.0,83,0.00,,,0.00,Wunderground v.1.15,2013-06-08 04:40:00,
2013-06-07 23:45:00,57.8,52.7,29.89,NE,47,0.0,0.0,83,0.00,,,0.00,Wunderground v.1.15,2013-06-08 04:45:00,
2013-06-07 23:55:00,57.5,52.7,29.90,NE,47,0.0,0.0,84,0.00,,,0.00,Wunderground v.1.15,2013-06-08 04:55:00,